Atlantic City, NJ

2:54 PM EDT on August 21, 2019 (GMT -0400)
Atlantic City International

Weather History for KACY - July, 2019

Change the Weather History Date:

Monday, July 22, 2019

  Actual Average Record
Temperature  
Mean Temperature 85 °F 76 °F  
Max Temperature 96 °F 86 °F 105 °F (2011)
Min Temperature 74 °F 67 °F 53 °F (2001)
Degree Days  
Heating Degree Days 0 0  
Month to date heating degree days 0 0  
Since 1 June heating degree days 5 27  
Since 1 July heating degree days 0 0  
Cooling Degree Days 20 12  
Month to date cooling degree days 346 247  
Year to date cooling degree days 705 514  
Since 1 June cooling degree days 605 450  
Growing Degree Days 34 (Base 50)    
Moisture  
Dew Point 72 °F    
Average Humidity 67    
Maximum Humidity 87    
Minimum Humidity 46    
Precipitation  
Precipitation 0.24 in 0.12 in 2.34 in (2006)
Month to date precipitation 4.32 2.59  
Year to date precipitation 27.41 22.98  
Snow  
Snow 0.00 in 0.00 in 0.00 in ()
Month to date snowfall 0.0 0.0  
Since 1 June snowfall 0.0 0.0  
Since 1 July snowfall 0.0 0.0  
Snow Depth 0.00 in    
Sea Level Pressure  
Sea Level Pressure 29.80 in    
Wind  
Wind Speed 7 mph (WSW)    
Max Wind Speed 30 mph    
Max Gust Speed 42 mph    
Visibility 9 miles    
Events Rain , Thunderstorm    
T = Trace of Precipitation, MM = Missing Value Source: NWS Daily Summary

Daily Weather History Graph

Daily Weather History Graph

Search for Another Location

Airport or City:

Astronomy

Jul. 22, 2019 Rise Set
Actual Time 5:49 AM EDT 8:20 PM EDT
Civil Twilight 5:18 AM EDT 8:50 PM EDT
Nautical Twilight 4:39 AM EDT 9:29 PM EDT
Astronomical Twilight 3:56 AM EDT 10:11 PM EDT
Moon 11:41 PM EDT (7/22) 11:02 AM EDT (7/22)
Length of Visible Light 15h 32m
Length of Day
14h 30m
Waning Gibbous, 72% of the Moon is Illuminated
Jul 22
Waning Gibbous
Jul 24
Last Quarter
Jul 31
New
Aug 7
First Quarter
Aug 15
Full

Hourly Weather History & Observations

Time (EDT) Temp. Heat Index Dew Point Humidity Pressure Visibility Wind Dir Wind Speed Gust Speed Precip Events Conditions
12:54 AM 84.9 °F 90.1 °F 71.1 °F 63% 29.86 in 10.0 mi WNW 8.1 mph - N/A   Clear
1:54 AM 82.9 °F 87.5 °F 71.1 °F 67% 29.87 in 10.0 mi WNW 4.6 mph - N/A   Clear
2:54 AM 80.1 °F 83.8 °F 72.0 °F 76% 29.86 in 10.0 mi North 4.6 mph - N/A   Partly Cloudy
3:54 AM 79.0 °F - 72.0 °F 79% 29.85 in 10.0 mi Calm Calm - N/A   Clear
4:54 AM 78.1 °F - 71.1 °F 79% 29.84 in 10.0 mi ESE 3.5 mph - N/A   Clear
5:54 AM 78.1 °F - 71.1 °F 79% 29.86 in 10.0 mi NNW 4.6 mph - N/A   Clear
6:54 AM 79.0 °F - 71.1 °F 77% 29.86 in 10.0 mi SW 3.5 mph - N/A   Clear
7:54 AM 82.0 °F 86.7 °F 72.0 °F 71% 29.86 in 10.0 mi NW 6.9 mph - N/A   Clear
8:54 AM 86.0 °F 91.5 °F 71.1 °F 61% 29.85 in 10.0 mi Calm Calm - N/A   Clear
9:54 AM 88.0 °F 95.6 °F 73.0 °F 61% 29.84 in 10.0 mi South 5.8 mph - N/A   Clear
10:54 AM 91.0 °F 98.2 °F 72.0 °F 53% 29.83 in 10.0 mi WSW 9.2 mph 18.4 mph N/A   Clear
11:54 AM 93.0 °F 100.1 °F 71.1 °F 49% 29.82 in 10.0 mi SW 11.5 mph 18.4 mph N/A   Clear
12:54 PM 95.0 °F 103.2 °F 72.0 °F 47% 29.80 in 10.0 mi SW 16.1 mph 21.9 mph N/A   Clear
1:54 PM 95.0 °F 104.5 °F 73.0 °F 49% 29.78 in 10.0 mi SW 13.8 mph 23.0 mph N/A   Scattered Clouds
2:54 PM 95.0 °F 105.2 °F 73.9 °F 50% 29.75 in 10.0 mi South 11.5 mph 20.7 mph N/A   Scattered Clouds
3:54 PM 93.0 °F 103.2 °F 73.9 °F 54% 29.74 in 10.0 mi South 10.4 mph 19.6 mph N/A   Mostly Cloudy
4:54 PM 91.9 °F 103.2 °F 75.0 °F 58% 29.72 in 10.0 mi South 8.1 mph 19.6 mph N/A   Scattered Clouds
5:54 PM 93.9 °F 103.4 °F 73.0 °F 51% 29.72 in 10.0 mi SW 16.1 mph 26.5 mph N/A   Scattered Clouds
6:18 PM 91.9 °F 101.3 °F 73.9 °F 55% 29.71 in 10.0 mi SW 15.0 mph 21.9 mph N/A Thunderstorm Partly Cloudy
6:47 PM 77.0 °F - 69.1 °F 76% 29.74 in 2.5 mi NW 20.7 mph 40.3 mph 0.00 in Rain , Thunderstorm Heavy Thunderstorms and Rain
6:54 PM 75.0 °F - 71.1 °F 87% 29.73 in 3.0 mi NW 8.1 mph - 0.05 in Rain , Thunderstorm Light Thunderstorms and Rain
7:10 PM 77.0 °F - 73.0 °F 88% 29.75 in 10.0 mi WNW 12.7 mph - 0.00 in   Overcast
7:27 PM 77.0 °F - 72.0 °F 84% 29.77 in 10.0 mi West 9.2 mph - 0.00 in Thunderstorm Thunderstorm
7:36 PM 75.9 °F - 70.0 °F 82% 29.80 in 1.8 mi SW 26.5 mph 41.4 mph 0.02 in Rain , Thunderstorm Heavy Thunderstorms and Rain
7:44 PM 75.0 °F - 69.1 °F 82% 29.79 in 1.0 mi West 9.2 mph 41.4 mph 0.14 in Rain , Thunderstorm Heavy Thunderstorms and Rain
7:49 PM 73.4 °F - 69.8 °F 88% 29.79 in 2.0 mi NW 5.8 mph - 0.19 in Rain , Thunderstorm Light Thunderstorms and Rain
7:54 PM 73.9 °F - 70.0 °F 87% 29.78 in 7.0 mi NW 4.6 mph - 0.19 in Rain , Thunderstorm Light Thunderstorms and Rain
8:06 PM 75.0 °F - 70.0 °F 84% 29.78 in 10.0 mi Calm Calm - 0.00 in   Mostly Cloudy
8:54 PM 77.0 °F - 71.1 °F 82% 29.79 in 10.0 mi WSW 5.8 mph - 0.00 in   Clear
9:54 PM 78.1 °F - 71.1 °F 79% 29.78 in 10.0 mi SW 5.8 mph - N/A   Clear
10:54 PM 75.9 °F - 71.1 °F 85% 29.79 in 10.0 mi SSW 4.6 mph - N/A   Partly Cloudy
11:54 PM 77.0 °F - 72.0 °F 84% 29.78 in 10.0 mi Variable 3.5 mph - N/A   Partly Cloudy